Regional Weather Roundup
Issued by NWS

Home | Current Version | Previous Version | Text Only | Print | Product List | Glossary Off
Versions: 1 2 3 4 5 6 7 8 9 10 11 12 13 14 15 16 17 18 19 20 21 22 23 24 25 26 27 28 29 30 31 32 33 34 35 36 37 38 39 40 41 42 43 44 45 46 47 48 49 50

000
ASUS43 KBIS 100920
RWRND

NORTH DAKOTA REGIONAL WEATHER ROUNDUP
NATIONAL WEATHER SERVICE BISMARCK ND
400 AM CDT THU JUL 10 2014

NOTE: "FAIR" INDICATES FEW OR NO CLOUDS BELOW 12,000 FEET WITH NO
SIGNIFICANT WEATHER AND/OR OBSTRUCTIONS TO VISIBILITY.


NDZ001>003-009>011-017-101000-
NORTHWEST NORTH DAKOTA

CITY           SKY/WX    TMP DP  RH WIND       PRES   REMARKS
WILLISTON      CLOUDY    69  56  62 S7        29.80S
MINOT          CLEAR     66  59  78 S17G26    29.84F
MINOT AFB      CLEAR     64  63  97 S8        29.83F
$$

NDZ018>021-031>035-040>046-101000-
SOUTHWEST NORTH DAKOTA

CITY           SKY/WX    TMP DP  RH WIND       PRES   REMARKS
BISMARCK       CLEAR     60  32  34 SE7       29.91F
DICKINSON      PTCLDY    60  54  80 S10       29.86F
GARRISON         N/A     64  60  87 S12       29.87F
HETTINGER ARPT PTCLDY    58  54  86 SE7       29.92F
$$

NDZ004>008-012>016-024-026-027-054-101000-
NORTHEAST NORTH DAKOTA

CITY           SKY/WX    TMP DP  RH WIND       PRES   REMARKS
GRAND FORKS    CLEAR     56  51  84 S3        29.95F
GRND FRKS AFB  CLEAR     55  52  90 S6        29.95F
DEVILS LAKE    CLEAR     63  54  72 SE7       29.91F
$$

NDZ022-023-025-028>030-036>039-047>053-101000-
SOUTHEAST NORTH DAKOTA

CITY           SKY/WX    TMP DP  RH WIND       PRES   REMARKS
FARGO          CLEAR     62  51  67 S8        29.97F
JAMESTOWN      CLEAR     59  55  87 S7        29.95F
$$



USA.gov is the U.S. government's official web portal to all federal, state and local government web resources and services.